This demonstration page uses our WeatherBlox Daily Observations layout. Learn more.

Left ArrowRight Arrow

Hourly Observations for June 21, 2018

Temp ( °F °C ) Dew Point ( °F °C ) Humidity (%) Winds ( mph kmh ) Pressure ( in mb ) Visibility ( mi km ) Precip ( " mm )
12:53 am 00:53 Clear 73 22.8 71 21.7 94 94 NNE 3 6 29.83 1010 10 16 0.00 0.00
1:53 am 01:53 Mostly Cloudy 73 22.8 71 21.7 94 94 Calm 29.83 1010 10 16 0.00 0.00
2:53 am 02:53 Partly Cloudy 72 22.2 71 21.7 97 97 Calm 29.81 1010 10 16 0.00 0.00
3:53 am 03:53 Mostly Cloudy 73 22.8 72 22.2 96 96 E 3 6 29.79 1009 10 16 0.00 0.00
4:19 am 04:19 Cloudy 73 22.8 72 22.2 96 96 Calm 29.80 1009 10 16 0.00 0.00
4:45 am 04:45 Cloudy with Nearby Thunderstorms 73 22.8 73 22.8 100 100 Calm 29.80 1009 10 16 0.00 0.03
4:53 am 04:53 Cloudy with Nearby Thunderstorms 73 22.8 72 22.2 96 96 Calm 29.80 1009 6 10 0.01 0.25
5:20 am 05:20 Cloudy with Rain 73 22.8 73 22.8 100 100 VRB 3 6 29.83 1010 3 5 0.05 1.27
5:53 am 05:53 Cloudy with Nearby Thunderstorms 73 22.8 73 22.8 100 100 SW 3 6 29.81 1009 6 10 0.10 2.54
6:08 am 06:08 Cloudy with Rain 73 22.8 73 22.8 100 100 VRB 5 7 29.83 1010 5 8 0.02 0.51
6:11 am 06:11 Cloudy with Heavy Rain 73 22.8 72 22.2 96 96 VRB 7 11 29.83 1010 2 3 0.08 2.03
6:13 am 06:13 Cloudy with Nearby Thunderstorms 73 22.8 72 22.2 96 96 W 6 9 29.83 1010 1 2 0.16 4.06
6:21 am 06:21 Cloudy with Nearby Thunderstorms 72 22.2 72 22.2 100 100 W 6 9 29.83 1010 1 1 0.28 7.11
6:27 am 06:27 Cloudy with Nearby Thunderstorms 72 22.2 72 22.2 100 100 Calm 29.83 1010 2 3 0.33 8.38
6:34 am 06:34 Cloudy with Heavy Rain 72 22.2 72 22.2 100 100 Calm 29.83 1010 1 2 0.39 9.91
6:41 am 06:41 Cloudy with Rain 72 22.2 72 22.2 100 100 Calm 29.83 1010 3 5 0.41 10.41
6:53 am 06:53 Cloudy with Light Rain 72 22.2 72 22.2 100 100 Calm 29.81 1009 6 10 0.41 10.41
7:53 am 07:53 Mostly Sunny 73 22.8 72 22.2 96 96 Calm 29.80 1009 10 16 0.01 0.25
8:43 am 08:43 Mostly Cloudy 74 23.3 72 22.2 94 94 Calm 29.83 1010 10 16 0.00 0.00
8:53 am 08:53 Cloudy 75 23.9 73 22.8 94 94 Calm 29.80 1009 10 16 0.00 0.00
9:11 am 09:11 Partly Cloudy 77 25 73 22.8 88 88 VRB 3 6 29.80 1009 10 16 0.00 0.00
9:23 am 09:23 Mostly Cloudy 76 24.4 73 22.8 91 91 Calm 29.83 1010 10 16 0.00 0.00
9:32 am 09:32 Mostly Cloudy 76 24.4 73 22.8 91 91 Calm 29.83 1010 10 16 0.00 0.00
9:45 am 09:45 Cloudy 76 24.4 73 22.8 91 91 Calm 29.83 1010 10 16 0.00 0.00
9:53 am 09:53 Cloudy 75 23.9 74 23.3 96 96 Calm 29.80 1009 10 16 0.00 0.00
10:05 am 10:05 Cloudy 75 23.9 72 22.2 90 90 SW 6 9 29.83 1010 10 16 0.00 0.00
10:46 am 10:46 Cloudy with Light Rain 75 23.9 73 22.8 94 94 SW 5 7 29.80 1009 7 11 0.00 0.03
10:53 am 10:53 Cloudy with Light Rain 75 23.9 73 22.8 94 94 SW 7 11 29.79 1009 6 10 0.00 0.03
11:53 am 11:53 Cloudy with Rain 74 23.3 73 22.8 97 97 SW 5 7 29.79 1009 2 3 0.07 1.78
12:08 pm 12:08 Cloudy with Light Rain 74 23.3 73 22.8 97 97 SW 3 6 29.80 1009 5 8 0.01 0.25
12:14 pm 12:14 Cloudy with Light Rain 74 23.3 73 22.8 97 97 VRB 5 7 29.80 1009 3 4 0.03 0.76
12:28 pm 12:28 Cloudy with Rain 73 22.8 73 22.8 100 100 WSW 7 11 29.80 1009 2 3 0.06 1.52
12:49 pm 12:49 Cloudy with Heavy Rain 72 22 72 22 100 100 Calm 29.80 1009 1 2 0.17 4.32
12:53 pm 12:53 Cloudy with Heavy Rain 72 22.2 72 22.2 100 100 WSW 5 7 29.79 1009 1 2 0.20 5.08
1:10 pm 13:10 Cloudy with Light Rain 72 22.2 72 22.2 100 100 Calm 29.80 1009 2 3 0.06 1.52
1:19 pm 13:19 Cloudy with Light Rain 72 22.2 72 22.2 100 100 Calm 29.80 1009 5 8 0.07 1.78
1:30 pm 13:30 Cloudy with Light Rain 72 22.2 72 22.2 100 100 Calm 29.80 1009 6 10 0.07 1.78
1:43 pm 13:43 Cloudy with Light Rain 73 22.8 71 21.7 94 94 Calm 29.77 1008 5 8 0.08 2.03
1:53 pm 13:53 Cloudy with Light Rain 73 22.8 72 22.2 96 96 Calm 29.76 1008 4 6 0.09 2.29
2:53 pm 14:53 Cloudy with Light Rain 73 22.8 72 22.2 96 96 E 5 7 29.75 1008 4 6 0.06 1.52
2:58 pm 14:58 Cloudy with Rain 73 22.8 72 22.2 96 96 Calm 29.77 1008 3 4 0.01 0.25
3:03 pm 15:03 Cloudy with Heavy Rain 73 22.8 72 22.2 96 96 ESE 3 6 29.77 1008 2 2 0.04 1.02
3:25 pm 15:25 Cloudy with Rain 72 22.2 72 22.2 100 100 E 7 11 29.77 1008 2 3 0.18 4.57
3:35 pm 15:35 Cloudy with Light Rain 72 22.2 71 21.7 97 97 E 6 9 29.77 1008 5 8 0.19 4.83
3:53 pm 15:53 Cloudy with Light Rain 73 22.8 72 22.2 96 96 ENE 5 7 29.74 1007 4 6 0.20 5.08
4:09 pm 16:09 Cloudy with Rain 73 22.8 72 22.2 96 96 E 5 7 29.74 1007 4 6 0.03 0.76
4:25 pm 16:25 Cloudy with Light Rain 73 22.8 72 22.2 96 96 ENE 5 7 29.74 1007 5 8 0.06 1.52
4:33 pm 16:33 Cloudy with Light Rain 73 22.8 72 22.2 96 96 NE 8 13 29.74 1007 7 11 0.06 1.52
4:40 pm 16:40 Cloudy with Light Rain 73 22.8 72 22.2 96 96 E 5 7 29.74 1007 6 10 0.07 1.78
4:51 pm 16:51 Cloudy with Light Rain 73 23 73 23 100 100 ENE 6 9 29.74 1007 6 10 0.07 1.78
4:53 pm 16:53 Cloudy with Light Rain 74 23.3 73 22.8 97 97 ENE 5 7 29.73 1007 7 11 0.07 1.78
5:53 pm 17:53 Cloudy 75 23.9 72 22.2 90 90 NE 6 9 29.72 1007 10 16 0.00 0.03
6:13 pm 18:13 Cloudy 75 23.9 72 22.2 90 90 NNE 6 9 29.71 1006 10 16 0.00 0.00
6:50 pm 18:50 Cloudy 75 24 73 23 94 94 N 3 6 29.71 1006 10 16 0.00 0.00
6:53 pm 18:53 Cloudy 76 24.4 73 22.8 91 91 NE 5 7 29.72 1006 10 16 0.00 0.00
7:12 pm 19:12 Mostly Cloudy 76 24.4 72 22.2 88 88 ENE 7 11 29.71 1006 10 16 0.00 0.00
7:53 pm 19:53 Mostly Cloudy 74 23.3 71 21.7 91 91 ENE 6 9 29.72 1007 10 16 0.00 0.00
8:53 pm 20:53 Cloudy 74 23.3 72 22.2 94 94 Calm 29.73 1007 10 16 0.00 0.00
9:41 pm 21:41 Mostly Cloudy 73 22.8 72 22.2 96 96 E 5 7 29.74 1007 10 16 0.00 0.00
9:53 pm 21:53 Partly Cloudy 72 22.2 71 21.7 97 97 E 5 7 29.72 1007 10 16 0.00 0.00
10:04 pm 22:04 Mostly Cloudy 73 22.8 71 21.7 94 94 E 3 6 29.74 1007 10 16 0.00 0.00
10:38 pm 22:38 Mostly Cloudy 72 22.2 71 21.7 97 97 Calm 29.77 1008 10 16 0.00 0.00
10:53 pm 22:53 Mostly Clear 72 22.2 71 21.7 97 97 E 3 6 29.75 1007 10 16 0.00 0.00
11:53 pm 23:53 Partly Cloudy 71 21.7 71 21.7 100 100 Calm 29.74 1007 9 14 0.00 0.00

Powered by AerisWeather